| time (UTC) | temp C | wind direction | speed KPH | gust KPH | rain 1hr cm | rain 24hr cm | rain mn cm | humidity % | barometer mb |
| 20260510064003 | 11 | 270 | 0.0 | 6.4 | 0.00 | 8.15 | 0.03 | 97 | 1013.3 |
| 20260510063003 | 10 | 270 | 0.0 | 3.2 | 0.00 | 8.15 | 0.03 | 97 | 1013.2 |
| 20260510062003 | 10 | 0 | 0.0 | 0.0 | 0.00 | 8.15 | 0.03 | 97 | 1013.0 |
| 20260510061003 | 9 | 0 | 0.0 | 0.0 | 0.00 | 8.15 | 0.03 | 97 | 1012.9 |
| 20260510060003 | 8 | 0 | 0.0 | 0.0 | 0.00 | 8.15 | 0.03 | 97 | 1013.0 |
| 20260510055003 | 8 | 0 | 0.0 | 0.0 | 0.00 | 8.15 | 0.03 | 97 | 1013.2 |
| 20260510054003 | 8 | 270 | 0.0 | 3.2 | 0.00 | 8.15 | 0.03 | 97 | 1013.1 |
| 20260510053003 | 8 | 270 | 0.0 | 3.2 | 0.00 | 8.15 | 0.03 | 97 | 1012.9 |
| 20260510052003 | 7 | 270 | 0.0 | 3.2 | 0.00 | 8.15 | 0.03 | 97 | 1012.9 |
| 20260510051003 | 7 | 270 | 0.0 | 3.2 | 0.00 | 8.15 | 0.03 | 96 | 1013.2 |
| 20260510050003 | 7 | 270 | 0.0 | 3.2 | 0.00 | 8.15 | 0.03 | 96 | 1013.1 |
| 20260510045003 | 7 | 0 | 0.0 | 0.0 | 0.00 | 8.15 | 0.03 | 96 | 1013.2 |
| 20260510044003 | 7 | 0 | 0.0 | 0.0 | 0.00 | 8.15 | 0.03 | 96 | 1013.2 |
| 20260510043003 | 8 | 270 | 0.0 | 0.0 | 0.00 | 8.15 | 0.03 | 96 | 1012.9 |
| 20260510042003 | 8 | 270 | 0.0 | 3.2 | 0.00 | 8.15 | 0.03 | 97 | 1013.0 |
| 20260509211003 | 12 | 0 | 0.0 | 0.0 | 0.03 | 8.13 | 1.45 | 96 | 1014.5 |
| 20260509210004 | 12 | 0 | 0.0 | 0.0 | 0.03 | 8.13 | 1.45 | 96 | 1014.2 |
| 20260509205003 | 12 | 0 | 0.0 | 0.0 | 0.03 | 8.13 | 1.45 | 96 | 1013.9 |
| 20260509204003 | 12 | 0 | 0.0 | 0.0 | 0.03 | 8.13 | 1.45 | 96 | 1014.0 |
| 20260509203003 | 12 | 0 | 0.0 | 0.0 | 0.03 | 8.10 | 1.42 | 96 | 1013.9 |
| 20260509202003 | 12 | 0 | 0.0 | 0.0 | 0.03 | 8.10 | 1.42 | 96 | 1014.1 |
| 20260509201003 | 12 | 270 | 0.0 | 3.2 | 0.03 | 8.10 | 1.42 | 96 | 1013.7 |
| 20260509200003 | 12 | 270 | 0.0 | 3.2 | 0.03 | 8.10 | 1.42 | 96 | 1013.4 |
| 20260509195003 | 12 | 0 | 0.0 | 0.0 | 0.05 | 8.10 | 1.42 | 96 | 1013.1 |
| 20260509194003 | 12 | 270 | 0.0 | 4.8 | 0.05 | 8.10 | 1.42 | 96 | 1013.0 |
| 20260509193003 | 12 | 0 | 0.0 | 0.0 | 0.05 | 8.08 | 1.37 | 96 | 1012.8 |
| 20260509192003 | 12 | 0 | 0.0 | 0.0 | 0.05 | 8.08 | 1.37 | 96 | 1012.5 |
| 20260509191003 | 12 | 0 | 0.0 | 0.0 | 0.05 | 8.08 | 1.37 | 96 | 1012.3 |
| 20260509190004 | 12 | 0 | 0.0 | 0.0 | 0.10 | 8.08 | 1.37 | 96 | 1012.3 |
| 20260509185003 | 12 | 0 | 0.0 | 0.0 | 0.13 | 8.05 | 1.35 | 96 | 1012.0 |
| 20260509184003 | 12 | 0 | 0.0 | 0.0 | 0.20 | 8.05 | 1.35 | 96 | 1011.9 |
| 20260509183003 | 12 | 0 | 0.0 | 0.0 | 0.30 | 8.00 | 1.32 | 96 | 1012.0 |
| 20260509182003 | 12 | 0 | 0.0 | 0.0 | 0.46 | 8.00 | 1.32 | 96 | 1012.1 |
| 20260509181003 | 12 | 270 | 0.0 | 4.8 | 0.61 | 8.00 | 1.32 | 96 | 1012.0 |
| 20260509180004 | 12 | 270 | 1.6 | 4.8 | 0.64 | 7.98 | 0.00 | 96 | 1011.9 |
| 20260509175003 | 12 | 270 | 0.0 | 3.2 | 0.66 | 7.92 | 1.32 | 95 | 1012.4 |
| 20260509174003 | 12 | 270 | 0.0 | 3.2 | 0.79 | 7.82 | 0.00 | 95 | 1012.5 |
| 20260509173003 | 12 | 0 | 0.0 | 0.0 | 0.79 | 7.72 | 1.17 | 95 | 1012.8 |
| 20260509172003 | 12 | 0 | 0.0 | 0.0 | 7.24 | 7.57 | 1.02 | 94 | 1013.3 |
| 20260509171003 | 12 | 0 | 0.0 | 0.0 | 7.16 | 7.42 | 0.86 | 94 | 1013.3 |
| 20260509170003 | 12 | 0 | 0.0 | 0.0 | 7.16 | 7.34 | 0.81 | 93 | 1013.6 |
| 20260509165003 | 13 | 0 | 0.0 | 0.0 | 7.09 | 7.26 | 0.71 | 92 | 1013.5 |
| 20260509164003 | 13 | 270 | 0.0 | 4.8 | 6.91 | 7.06 | 0.51 | 91 | 1013.9 |
| 20260509163004 | 13 | 270 | 1.6 | 11.3 | 6.78 | 6.93 | 0.38 | 91 | 1014.0 |
| 20260509162003 | 13 | 270 | 0.0 | 3.2 | 0.28 | 0.33 | 0.33 | 90 | 1013.9 |
| 20260509161003 | 13 | 270 | 0.0 | 3.2 | 0.23 | 0.23 | 0.23 | 89 | 1013.9 |
| 20260509160004 | 13 | 270 | 0.0 | 4.8 | 0.18 | 0.18 | 0.18 | 88 | 1013.5 |
| 20260509155004 | 13 | 0 | 0.0 | 0.0 | 0.18 | 0.18 | 0.18 | 88 | 1012.7 |
| 20260509154006 | 13 | 0 | 0.0 | 0.0 | 0.15 | 0.15 | 0.15 | 87 | 1011.9 |
| 20260509153003 | 13 | 270 | 0.0 | 3.2 | 0.15 | 0.15 | 0.15 | 87 | 1011.7 |
| 20260509152003 | 13 | 270 | 0.0 | 3.2 | 0.05 | 0.05 | 0.05 | 86 | 1011.7 |
| 20260509151003 | 14 | 270 | 1.6 | 6.4 | 0.00 | 0.00 | 0.00 | 83 | 1012.2 |
| 20260509150003 | 14 | 270 | 0.0 | 3.2 | 0.00 | 0.00 | 0.00 | 80 | 1012.7 |
| 20260509145003 | 15 | 270 | 0.0 | 3.2 | 0.00 | 0.00 | 0.00 | 79 | 1013.1 |
| 20260509144003 | 15 | 270 | 0.0 | 3.2 | 0.00 | 0.00 | 0.00 | 81 | 1013.3 |
| 20260509143003 | 15 | 0 | 0.0 | 0.0 | 0.00 | 0.00 | 0.00 | 80 | 1013.3 |
| 20260509142003 | 15 | 270 | 0.0 | 3.2 | 0.00 | 0.00 | 0.00 | 81 | 1013.5 |
| 20260509141003 | 15 | 270 | 0.0 | 6.4 | 0.00 | 0.00 | 0.00 | 81 | 1014.0 |
| 20260509140004 | 15 | 270 | 0.0 | 4.8 | 0.00 | 0.00 | 0.00 | 80 | 1013.7 |
| 20260509135003 | 15 | 270 | 1.6 | 12.9 | 0.00 | 0.00 | 0.00 | 80 | 1013.4 |
| 20260509134003 | 16 | 270 | 0.0 | 6.4 | 0.00 | 0.00 | 0.00 | 80 | 1013.6 |
| 20260509133004 | 15 | 270 | 1.6 | 4.8 | 0.00 | 0.00 | 0.00 | 80 | 1013.7 |
| 20260509132003 | 16 | 270 | 1.6 | 4.8 | 0.00 | 0.00 | 0.00 | 79 | 1013.6 |
| 20260509131003 | 16 | 270 | 0.0 | 3.2 | 0.00 | 0.00 | 0.00 | 78 | 1013.6 |
| 20260509130004 | 16 | 270 | 0.0 | 3.2 | 0.00 | 0.00 | 0.00 | 76 | 1013.6 |
| 20260509125003 | 16 | 270 | 0.0 | 3.2 | 0.00 | 0.00 | 0.00 | 76 | 1013.6 |
| 20260509124003 | 16 | 270 | 0.0 | 4.8 | 0.00 | 0.00 | 0.00 | 78 | 1013.9 |
| 20260509123003 | 16 | 270 | 0.0 | 3.2 | 0.00 | 0.00 | 0.00 | 78 | 1013.9 |
| 20260509122003 | 16 | 270 | 0.0 | 1.6 | 0.00 | 0.00 | 0.00 | 78 | 1014.3 |
| 20260509121006 | 16 | 270 | 0.0 | 3.2 | 0.00 | 0.00 | 0.00 | 76 | 1014.4 |
| 20260509120003 | 16 | 0 | 0.0 | 0.0 | 0.00 | 0.00 | 0.00 | 76 | 1014.5 |
| 20260509115003 | 16 | 0 | 0.0 | 0.0 | 0.00 | 0.00 | 0.00 | 75 | 1015.0 |
| 20260509114003 | 16 | 0 | 0.0 | 0.0 | 0.00 | 0.00 | 0.00 | 75 | 1014.9 |
| 20260509113003 | 16 | 270 | 0.0 | 3.2 | 0.00 | 0.00 | 0.00 | 75 | 1014.9 |
| 20260509112003 | 16 | 270 | 0.0 | 6.4 | 0.00 | 0.00 | 0.00 | 74 | 1014.9 |
| 20260509111003 | 16 | 270 | 0.0 | 4.8 | 0.00 | 0.00 | 0.00 | 74 | 1015.0 |
| 20260509110003 | 17 | 270 | 0.0 | 6.4 | 0.00 | 0.00 | 0.00 | 74 | 1015.0 |
| 20260509105003 | 17 | 270 | 0.0 | 4.8 | 0.00 | 0.00 | 0.00 | 74 | 1014.8 |
| 20260509104003 | 17 | 270 | 1.6 | 6.4 | 0.00 | 0.00 | 0.00 | 71 | 1014.9 |
| 20260509103003 | 17 | 270 | 1.6 | 6.4 | 0.00 | 0.00 | 0.00 | 71 | 1014.8 |
| 20260509102006 | 17 | 270 | 0.0 | 3.2 | 0.00 | 0.00 | 0.00 | 72 | 1014.9 |
| 20260509101003 | 17 | 270 | 0.0 | 4.8 | 0.00 | 0.00 | 0.00 | 71 | 1015.2 |
| 20260509100004 | 17 | 270 | 0.0 | 4.8 | 0.00 | 0.00 | 0.00 | 71 | 1014.9 |
| 20260509095003 | 17 | 270 | 0.0 | 4.8 | 0.00 | 0.00 | 0.00 | 72 | 1014.8 |
| 20260509094004 | 16 | 270 | 0.0 | 6.4 | 0.00 | 0.00 | 0.00 | 76 | 1014.6 |
| 20260509093003 | 16 | 270 | 0.0 | 4.8 | 0.00 | 0.00 | 0.00 | 78 | 1014.8 |
| 20260509092003 | 16 | 270 | 0.0 | 6.4 | 0.00 | 0.00 | 0.00 | 78 | 1014.4 |
| 20260509091003 | 15 | 270 | 1.6 | 11.3 | 0.00 | 0.00 | 0.00 | 80 | 1014.4 |
| 20260509090003 | 15 | 270 | 4.8 | 11.3 | 0.00 | 0.00 | 0.00 | 80 | 1014.4 |
| 20260509085003 | 15 | 270 | 4.8 | 11.3 | 0.00 | 0.00 | 0.00 | 82 | 1014.5 |
| 20260509084003 | 14 | 270 | 3.2 | 9.7 | 0.00 | 0.00 | 0.00 | 82 | 1014.5 |
| 20260509083003 | 14 | 270 | 3.2 | 9.7 | 0.00 | 0.00 | 0.00 | 82 | 1014.4 |
| 20260509082005 | 13 | 270 | 3.2 | 9.7 | 0.00 | 0.00 | 0.00 | 83 | 1014.4 |
| 20260509081004 | 13 | 270 | 1.6 | 6.4 | 0.00 | 0.00 | 0.00 | 83 | 1014.9 |
| 20260509080003 | 13 | 270 | 1.6 | 6.4 | 0.00 | 0.00 | 0.00 | 85 | 1014.8 |
| 20260509075003 | 12 | 270 | 0.0 | 4.8 | 0.00 | 0.00 | 0.00 | 88 | 1015.2 |
| 20260509074003 | 11 | 270 | 1.6 | 6.4 | 0.00 | 0.00 | 0.00 | 91 | 1015.3 |
| 20260509073003 | 11 | 270 | 1.6 | 6.4 | 0.00 | 0.00 | 0.00 | 93 | 1015.0 |
| 20260509072003 | 11 | 270 | 1.6 | 4.8 | 0.00 | 0.00 | 0.00 | 94 | 1015.2 |
| 20260509071003 | 11 | 270 | 1.6 | 6.4 | 0.00 | 0.00 | 0.00 | 94 | 1015.3 |
| 20260509070003 | 11 | 270 | 1.6 | 4.8 | 0.00 | 0.00 | 0.00 | 94 | 1015.4 |
| 20260509065003 | 11 | 270 | 0.0 | 4.8 | 0.00 | 0.00 | 0.00 | 94 | 1015.4 |